Showing default

QIANFAN-44, 62245

Orbit data source: Space-Track

QIANFAN-44, 62245 is a Chinese payload satellite in LEO that was launched on Thu, 05 Dec 2024 UTC via a CHANG ZHENG 6A launch vehicle from the Taiyaun Space Center, China (TSC). Payload-class satellites include a variety of spacecraft equipped with specific instruments for various scientific and technological missions. These include communications satellites like Starlink; space stations such as the ISS; scientific satellites like the Hubble; Earth observation satellites from companies like Planet Labs, Umbra, and HawkEye 360; GPS; miniature CubeSats for education and research; and military/defense satellites.

Loading next visibility...
Identifier
62245, 2024-232J
Orbit
LEO
Country
Flag of CNCN / PRC
Related business
Manufacturer
SECM
Mission
Operational Commercial Communications
Bus & Motor
QIANFAN, Unknown motor
Mass
267 kg wet, ~267 kg dry
Launch date (UTC)
2024-12-05 (9 months ago)
Launch vehicle
CHANG ZHENG 6A
Launch site
Taiyaun Space Center, China (TSC)
Object type
Payload
Rocket body
Debris
Shape & HBR
Box + 1 Pan, 5.0 m
Radar Cross Section
13.200 m², Large (>1 m²)

Expand to show TLE details & history
Last TLE update: 15 hours ago

TLE from 15 hours ago
0 QIANFAN-44
1 62245U 24232J   25261.20107395  .00000073  00000-0  93471-4 0  9993
2 62245  88.9976  49.6925 0015549  82.8247 277.4671 13.50972923 87783
Epoch: 2025-09-18T04:49Z
TLE epoch observation values (Epoch: 2025-09-18T04:49:32.789Z)
Latitude
-0.00005°
Longitude
-20.06019°
Altitude
1,070.147 km
Speed
7.318 km/s
True Right ascension
03h 18m 46s
True Declination
0° 00' 00"
Sunlit
Object was in full shadow at epoch
Visualization orbit readout
Latitude
Unknown
Longitude
Unknown
Altitude
Unknown
Speed
Unknown
Apparent Right ascension
Unknown
Apparent Declination
Unknown
Sunlit
N/A
Visualization observer readout
Local Sidereal Time
12:48:54
Azimuth
Unknown
Elevation
Unknown
Doppler factor
Unknown
Orbital elements
Apogee altitude
1,077.307 km
Perigee altitude
1,054.158 km
Semi-major axis
7,443.869 km
Eccentricity
0.00155
Inclination
88.9976°
RAAN
49.6925°
Arg. of periapsis
82.8247°
True anomaly
277.29039°
Mean anomaly
277.4671°
Eccentric anomaly
277.37875°
Mean motion
3.37944 °/min
Orbital period
106.53 mins
BSTAR
0.000093471
Loading maneuver chart data...
Computing Atmospheric mass density...
Loading historical data...
Loading historical data...
Loading historical data...
Loading historical data...
Loading historical data...
Loading historical data...
Loading historical data...

Documentation

Showing up to 5 results
|